Regional Weather Roundup
Issued by NWS

Home | Current Version | Previous Version | Text Only | Print | Product List | Glossary On
Versions: 1 2 3 4 5 6 7 8 9 10 11 12 13 14 15 16 17 18 19 20 21 22 23 24 25 26 27 28 29 30 31 32 33 34 35 36 37 38 39 40 41 42 43 44 45 46 47 48 49 50
000
ASUS43 KDTX 022001
RWRMI
MICHIGAN HOURLY REGIONAL WEATHER ROUNDUP
NATIONAL WEATHER SERVICE DETROIT/PONTIAC MI
300 PM EST FRI DEC 02 2016

NOTE: "FAIR" INDICATES FEW OR NO CLOUDS BELOW 12,000 FEET WITH NO
SIGNIFICANT WEATHER AND/OR OBSTRUCTION TO VISIBILITY.

MIZ047>049-052>055-059>063-066>070-074>076-081>083-022100-
SOUTHEAST LOWER MICHIGAN

CITY           SKY/WX    TMP DP  RH WIND       PRES   REMARKS
ADRIAN         CLOUDY    39  30  70 NW14      30.11R WCI  31
ALMA           CLOUDY    38  28  67 W13       30.10R WCI  30
ANN ARBOR      CLOUDY    38  29  70 W15       30.09R WCI  29
BAD AXE        CLOUDY    38  30  73 W16G24    30.01R WCI  29
CARO           CLOUDY    38  31  74 W12G20    30.04R WCI  31
DETROIT CITY   CLOUDY    40  26  57 NW13      30.07R WCI  32
DETROIT        CLOUDY    40  27  59 NW17G25   30.09R WCI  31
FLINT          CLOUDY    37  27  67 W14G24    30.08R WCI  28
GROSSE ILE     CLOUDY    41  28  60 NW16      30.07R
HILLSDALE      CLOUDY    36  28  75 NW13      30.10R WCI  27
HOWELL         CLOUDY    36  26  67 NW14      30.09R WCI  27

CITY           SKY/WX    TMP DP  RH WIND       PRES   REMARKS
JACKSON        CLOUDY    36  28  73 NW15      30.11R WCI  27
LAMBERTVILLE   CLOUDY    41  32  71 W8        30.11R
LANSING        CLOUDY    36  25  64 NW14      30.12R WCI  27
LAPEER         NOT AVBL
MASON          CLOUDY    36  29  75 NW14      30.11R WCI  27
MONROE         CLOUDY    40  32  72 W13G21    30.09R WCI  33
MT. CLEMENS    PTSUNNY   39  28  65 NW14G28   30.04R WCI  31
PONTIAC        CLOUDY    36  26  67 NW14      30.06R WCI  27
PORT HOPE        N/A     40  31  70 W12G26    29.96R WCI  33
PORT HURON     CLOUDY    39  28  65 W9        30.03R WCI  33
TRI CITIES     CLOUDY    39  30  70 W16       30.08R WCI  30
MIDLAND        CLOUDY    39  28  64 W8G17     30.06R WCI  34
TROY           CLOUDY    39  26  59 W17       30.09R WCI  30
SAGINAW HB     CLOUDY    37  28  70 W15G21    30.06R WCI  28
$$
MIZ043>046-050>051-056>058-064>065-071>073-077>080-022100-
SOUTHWEST LOWER MICHIGAN

CITY           SKY/WX    TMP DP  RH WIND       PRES   REMARKS
BATTLE CREEK   CLOUDY    37  31  78 NW7       30.13R WCI  32
BENTON HARBOR  CLOUDY    38  26  62 NW8G21    30.18R WCI  32
BIG RAPIDS     CLOUDY    37  28  67 W8        30.10R WCI  31
COLDWATER      CLOUDY    38  26  62 W12       30.13R WCI  31
FREMONT        CLOUDY    36  26  67 NW10      30.13R WCI  28
HOLLAND        CLOUDY    38  27  64 NW9       30.15R WCI  31
GRAND RAPIDS   CLOUDY    37  25  61 W14       30.14R WCI  28
IONIA          CLOUDY    36  26  66 W10       30.12R WCI  28
KALAMAZOO      CLOUDY    38  27  64 W13       30.14R WCI  30
LUDINGTON      CLOUDY    36  29  78 W6        30.14R WCI  31
MARSHALL       CLOUDY    37  30  77 NW9       30.12R WCI  30
MOUNT PLEASANT CLOUDY    38  29  72 W8G17     30.08R WCI  32
MUSKEGON       CLOUDY    38  26  62 NW12      30.16R WCI  30
SOUTH HAVEN    CLOUDY    39  30  69 NW7       30.17R WCI  34
$$
MIZ016>042-022100-
NORTHERN LOWER MICHIGAN

CITY           SKY/WX    TMP DP  RH WIND       PRES   REMARKS
ALPENA         CLOUDY    39  35  86 W12G18    29.99R WCI  32
BEAVER ISLAND  CLOUDY    39  34  81 NW10G20   30.06R WCI  32
BELLAIRE       MIX PCPN  38  35  89 W5        30.07R WCI  34
CADILLAC       LGT SNOW  35  32  90 W7        30.06R WCI  29
CHARLEVOIX     DRIZZLE   39  37  91 W12       30.08R WCI  32
FRANKFORT      CLOUDY    37  33  85 NW12      30.12R WCI  29
GAYLORD        LGT SNOW  35  32  88 W8        30.01R FOG     WCI  29
GRAYLING       CLOUDY    36  34  92 W13       30.04R WCI  27
HARBOR SPRINGS LGT RAIN  39  35  85 NW9       30.04R WCI  32
HOUGHTON LAKE  CLOUDY    36  30  79 NW12      30.05R WCI  28
MANISTEE       CLOUDY    37  30  75 W12       30.13R WCI  29
OSCODA         CLOUDY    42  32  66 W18G25    29.97R
PELLSTON       CLOUDY    40  33  76 NW18      30.03R WCI  31
ROGERS CITY    CLOUDY    39  34  80 NW13G24   30.00R WCI  32
TRAVERSE CITY  CLOUDY    38  33  82 W9        30.09R WCI  31
$$
MIZ007>008-015-022100-
EASTERN UPPER MICHIGAN

CITY           SKY/WX    TMP DP  RH WIND       PRES   REMARKS
KINROSS        CLOUDY    36  34  92 NW10      30.00R WCI  28
MACKINAC ISLAN DRIZZLE   37  37 100 NW8       30.01R WCI  30
NEWBERRY       CLOUDY    36  35  96 NW9G20    30.03R FOG     WCI  29
S. S. MARIE    CLOUDY    38  33  82 NW12      29.99R WCI  30
MUNISING         N/A     37  35  92 NW12G24   30.09R WCI  29
$$
MIZ004>006-011>014-085-022100-
CENTRAL UPPER MICHIGAN

CITY           SKY/WX    TMP DP  RH WIND       PRES   REMARKS
MANISTIQUE     CLOUDY    37  34  87 NW14      30.07R WCI  29
ESCANABA       CLOUDY    37  28  70 NW9       30.12R WCI  30
MENOMINEE      CLOUDY    37  27  67 NW9       30.15R WCI  30
SAWYER-GWINN   CLOUDY    34  28  80 NW9G18    30.09R WCI  26
$$
MIZ001>003-009>011-084-022100-
WESTERN UPPER MICHIGAN

CITY           SKY/WX    TMP DP  RH WIND       PRES   REMARKS
IRON MOUNTAIN  CLOUDY    35  26  69 NW9       30.11R WCI  28
HOUGHTON       CLOUDY    32  27  81 W8        30.12R WCI  25
COPPER HARBOR    N/A     35  31  85 N17G24    30.11R WCI  25
IRONWOOD       CLOUDY    29  27  92 W10       30.17R WCI  20
$$

ABBREVIATIONS USED IN REMARKS
   TC - TEMPERATURE IN CELSIUS
  WCI - WIND CHILL INDEX
   HX - HEAT INDEX
  VSB - VISIBILITY





USA.gov is the U.S. government's official web portal to all federal, state and local government web resources and services.